Terminal Aerodrome Forecast
Issued by NWS

Current Version | Previous Version | Graphics & Text | Print | Product List | Glossary On
Versions: 1 2 3 4 5 6 7 8 9 10 11 12 13 14 15 16 17
000
FTUS41 KPBZ 152321
TAFHLG
TAF
KHLG 152321Z 1600/1624 30003KT P6SM SCT060
     FM160900 00000KT 2SM BR SCT250
     FM161300 32005KT P6SM SCT035=

USA.gov is the U.S. government's official web portal to all federal, state and local government web resources and services.